Regional Weather Roundup
Issued by NWS

Home | Current Version | Previous Version | Graphics & Text | Print | Product List | Glossary On
Versions: 1 2 3 4 5 6 7 8 9 10 11 12 13 14 15 16 17 18 19 20 21 22 23 24 25 26 27 28 29 30 31 32 33 34 35 36 37 38 39 40 41 42 43 44 45 46 47 48 49 50
170
ASUS43 KMKX 281600
RWRWI

WISCONSIN REGIONAL WEATHER ROUNDUP
NATIONAL WEATHER SERVICE MILWAUKEE/SULLIVAN WI
1100 AM CDT SUN AUG 28 2016

NOTE: "FAIR" INDICATES FEW OR NO CLOUDS BELOW 12,000 FEET WITH NO
SIGNIFICANT WEATHER AND/OR OBSTRUCTIONS TO VISIBILITY.

WIZ001-002-006>008-014>016-023>028-281700-
NORTHWEST WISCONSIN

CITY           SKY/WX    TMP DP  RH WIND       PRES   REMARKS
SUPERIOR ARPT  CLOUDY    63  61  94 CALM      30.17S
ASHLAND        CLOUDY    65  61  87 SW3       30.19S
HAYWARD        PTSUNNY   65  60  84 S6        30.20R
SIREN          CLOUDY    64  63  97 SE5       30.18R
CUMBERLAND     CLOUDY    61  59  94 S3        30.20S FOG
RICE LAKE      CLOUDY    62  61  96 SE6       30.21S FOG
CHETEK         NOT AVBL
LADYSMITH      PTSUNNY   69  63  81 CALM      30.23R
EAU CLAIRE     CLOUDY    70  64  83 S3        30.20R
MENOMONIE      CLOUDY    67  66  94 SE7       30.21R
NEW RICHMOND   CLOUDY    65  65 100 SE7       30.17F FOG
OSCEOLA        CLOUDY    65  65 100 E8        30.19S
$$

WIZ003>005-009-010-017-018-281700-
NORTH CENTRAL WISCONSIN

CITY           SKY/WX    TMP DP  RH WIND       PRES   REMARKS
MANITOWISH WTR NOT AVBL
ARBOR VITAE    CLOUDY    66  59  78 CALM      30.22S
WOODRUFF       CLOUDY    66  59  78 CALM      30.22S
RHINELANDER    CLOUDY    68  61  78 VRB5      30.24R
EAGLE RIVER    MOSUNNY   65  56  71 NW5       30.22S
LAND O LAKES   PTSUNNY   67  58  73 NW5       30.24R
PHILLIPS       CLOUDY    66  60  82 SE6       30.21F
TOMAHAWK       CLOUDY    66  58  75 CALM      30.23S
MEDFORD        MOSUNNY   67  64  89 S3        30.23R
MERRILL        MOSUNNY   70  62  76 CALM      30.23S
$$

WIZ029-030-035-036-043>047-281700-
CENTRAL WISCONSIN

CITY           SKY/WX    TMP DP  RH WIND       PRES   REMARKS
WAUSAU         SUNNY     70  60  70 S5        30.22R
MOSINEE        PTSUNNY   66  63  88 S6        30.25R
MARSHFIELD     CLOUDY    70  62  76 S3        30.23R
STEVENS POINT  PTSUNNY   66  61  81 CALM      30.25R
WAUPACA        MOSUNNY   74  63  67 CALM      30.23S
WAUTOMA        CLOUDY    72  65  78 SE3       30.24R
WISC RAPIDS    CLOUDY    71  64  78 S3        30.24R
CAMP DOUGLAS   CLOUDY    72  66  83 SE3       30.23R
$$

WIZ011>013-019>022-031-037>040-048>050-281700-
NORTHEAST WISCONSIN

CITY           SKY/WX    TMP DP  RH WIND       PRES   REMARKS
ANTIGO         PTSUNNY   67  60  77 CALM      30.24R
SHAWANO        CLOUDY    73  62  66 CALM      30.22S
OCONTO         NOT AVBL
STURGEON BAY   PTSUNNY   71  62  73 NW7       30.22R
GREEN BAY      CLOUDY    72  64  76 CALM      30.22S
MANITOWOC      NOT AVBL
APPLETON       PTSUNNY   70  61  73 CALM      30.22S
CLINTONVILLE   CLOUDY    72  61  68 S3        30.23R
OSHKOSH        CLOUDY    73  63  70 VRB3      30.23R
$$

WIZ032>034-041-042-053>061-281700-
SOUTHWEST WISCONSIN

CITY           SKY/WX    TMP DP  RH WIND       PRES   REMARKS
LA CROSSE      CLOUDY    71  68  90 E7        30.20R
SPARTA         CLOUDY    69  65  88 SE3       30.22R
VIROQUA        CLOUDY    67  67 100 E5        30.23R
BOSCOBEL       CLOUDY    72  68  87 VRB6      30.21S
PRAIRIE DU CHI MOSUNNY   70  69  95 CALM      30.19F
PLATTEVILLE    SUNNY     76  72  86 SE8       30.21F
$$

WIZ056-057-062-063-064-067-068-281700-
SOUTH CENTRAL WISCONSIN

CITY           SKY/WX    TMP DP  RH WIND       PRES   REMARKS
REEDSBURG      NOT AVBL
BARABOO/DELLS  CLOUDY    65  64  96 E5        30.24S
LONE ROCK      NOT AVBL
MINERAL POINT  SUNNY     77  70  78 SE5       30.22S
MADISON        CLOUDY    69  66  90 N7        30.23R FOG
MIDDLETON      CLOUDY    68  68 100 E3        30.24R
WATERTOWN      CLOUDY    66  66 100 NE5       30.23S
MONROE         SUNNY     77  68  73 CALM      30.22S
JANESVILLE     MOSUNNY   79  68  69 VRB5      30.21S HX  81
$$

WIZ051-052-058>065-066-070>072-281700-
SOUTHEAST WISCONSIN

CITY           SKY/WX    TMP DP  RH WIND       PRES   REMARKS
MILWAUKEE      CLOUDY    69  64  84 NE13      30.23F
WAUKESHA       CLOUDY    64  64 100 NE6       30.25S FOG
MILWAUKEE/TIMM CLOUDY    66  63  88 SE3       30.25S
RACINE         CLOUDY    69  65  86 NE9       30.25S FOG
BURLINGTON     SUNNY     75  64  69 E3        30.22F
KENOSHA        SUNNY     77  67  71 E8        30.23S
FOND DU LAC    MOSUNNY   74  65  73 CALM      30.23F
SHEBOYGAN      PTSUNNY   75  63  66 N3        30.23R
WEST BEND      CLOUDY    68  63  83 CALM      30.24S
JUNEAU         CLOUDY    65  64  99 NE3       30.26R
$$

LSZ147-162-281700-
LAKE SUPERIOR

STATION/POSITION TIME  TEMP    WIND        PRES    WAVE
                       AIR SEA DIR/SP/G            HT/PER
                 (UTC) (F)     (DEG/KT/KT) (MB)    (FT/S)
W MID LAKE BUOY  1450   65 67  240/  8/ 10 1021.3R   1/ 3
DEVILS ISLAND    1500   64     220/  9/ 10 1022.0R
PORT WING        1500   63     220/  3/  6 1022.0
SAXON HARBOR     1540   67      40/  3/  5 1022.0R
$$

LMZ867-665-643>646-281700-
LAKE MICHIGAN

STATION/POSITION TIME  TEMP    WIND        PRES    WAVE
                       AIR SEA DIR/SP/G            HT/PER
                 (UTC) (F)     (DEG/KT/KT) (MB)    (FT/S)
CHAMBERS ISLAND  1500   71     230/  3/  6 1022.0S
S GREEN BAY BUOY 1500   68 71  250/  6/  8 1022.2R
N MID LAKE BUOY  1450   68 71  250/ 10/ 12 1021.4R   1/ 3
NORTHPORT PIER   1500   71     260/  3/ 12 1022.0R
SISTER BAY       1452   74     290/ 10/ 11   N/A
KEWAUNEE LAKESHO 1500   69     270/  2/  6 1022.6R
SHEBOYGAN LAKESH 1500   69      40/  3/  3 1023.0R
PORT WASHINGTON  1500   69     190/  4/  6 1024.4R
ATWATER BUOY     1500   64      10/  6/  6   N/A
MILWAUKEE LAKESH 1510   64      10/  7/  9   N/A
S MID LAKE BUOY  1450   74 75   50/  2/  4 1022.5R   1
KENOSHA   LAKESH 1500   69      30/  4/  4 1023.4R
$$

TC  - TEMPERATURE IN CELSIUS
VSB - VISIBILITY IN STATUTE MILES
WCI - WIND CHILL INDEX
HX  - HEAT INDEX





USA.gov is the U.S. government's official web portal to all federal, state and local government web resources and services.